Flag for Brazil Weather past 2 weeks in Foz do Iguaçu, Paraná, Brazil

Now
64 °F

Light rain. Broken clouds.


Feels Like: 64 °F
Forecast: 59 / 69 °F
Wind: 2 mph from Northwest

Location: Foz Do Iguacu Aeroporto

Current Time: Jul 3, 2015 at 2:32:21 PM

Latest Report: Jul 3, 2015 at 2:00 PM


Visibility: 2 mi

Pressure: N/A

Humidity: 100%

Dew point: 64 °F

Location of Foz do IguaçuLocation

Historic Weather in Foz do Iguaçu — Graph

°F

Foz do Iguaçu temperature yesterday

Maximum temperature yesterday: 66 °F (at 1:00 PM)
Minimum temperature yesterday: 57 °F (at 2:00 AM)
Average temperature yesterday: 61 °F

Past Weeks' High & Low Weather Summary

 TemperatureHumidityPressure
High81 °F (Jun 22, 2:00 PM)100% (Jun 18, 8:00 PM)30.39 "Hg (Jun 18, 8:00 PM)
Low43 °F (Jun 19, 6:00 AM)37% (Jun 19, 5:00 PM)29.86 "Hg (Jun 29, 4:00 PM)
Average64 °F82%30.14 "Hg
* Reported Jun 18 1:00 PM — Jul 3 1:00 PM, Foz do Iguaçu, Weather by CustomWeather, © 2015

Note: Actual official high and low records may vary slightly from our data, if they occured in-between our weather recording intervals... More about our weather records

Advertising

Foz do Iguaçu weather history for previous 24 hours

 ConditionsComfort  
Time TempWeatherWind HumidityBarometerVisibility
1:00 PM
Fri, Jul 3
N/ARain.3 mphN/AN/A1 mi
12:00 PM66 °FPartly sunny.3 mph88%29.89 "HgN/A
11:00 AM64 °FPartly sunny.5 mph94%29.92 "HgN/A
10:00 AM64 °FPartly sunny.7 mph94%29.89 "HgN/A
9:00 AM63 °FPartly sunny.3 mph94%29.89 "HgN/A
8:00 AM63 °FPartly sunny.3 mph94%29.86 "HgN/A
7:00 AM61 °FLight rain. Partly sunny.6 mph100%29.86 "Hg5 mi
6:00 AM61 °FPassing clouds.2 mph100%29.86 "Hg5 mi
5:00 AM63 °FPassing clouds.8 mph94%29.86 "HgN/A
4:00 AM63 °FPartly cloudy.6 mph100%29.86 "Hg5 mi
3:00 AM63 °FPassing clouds.3 mph100%29.89 "Hg5 mi
2:00 AM63 °FPassing clouds.6 mph100%29.86 "Hg5 mi
1:00 AM63 °FRain. Fog.5 mph94%N/A1 mi
12:00 AM63 °FLight rain. Fog.5 mph94%N/A2 mi
11:00 PM
Thu, Jul 2
63 °FLight rain. Mostly cloudy.5 mph100%29.89 "Hg5 mi
10:00 PM63 °FLight rain. Mostly cloudy.10 mph94%29.89 "Hg4 mi
9:00 PMN/ALight rain.12 mphN/AN/A4 mi
8:00 PMN/ALight rain.13 mphN/AN/A5 mi
7:00 PM63 °FThunderstorms. Partly cloudy.8 mph100%N/A2 mi
6:00 PM63 °FLight rain. Partly cloudy.8 mph100%N/A4 mi
5:00 PM64 °FPartly cloudy.8 mph94%29.86 "HgN/A
4:00 PM64 °FLight rain. Partly sunny.5 mph94%29.89 "Hg5 mi
3:00 PM64 °FBroken clouds.7 mph94%29.89 "HgN/A
2:00 PM64 °FBroken clouds.7 mph94%29.89 "HgN/A
Weather by CustomWeather, © 2015

See weather overviewHow to use our weather pages